Location: Unspecified
(0.0000°N, 0.0000°E)
Time: 07:29:10
(UTC+02:00)

Cosmos 1833 Rocket - Visible Passes

Search period start: 06 May 2016 00:00
Search period end: 16 May 2016 00:00
Orbit: 832 x 841 km, 71.0° (Epoch: 05 May)

Date Brightness Start Highest point End Pass type
(mag) Time Alt. Az. Time Alt. Az. Time Alt. Az.
06 May 3.4 05:46:37 46° SE 05:47:26 50° ESE 05:52:51 10° NNE visible
06 May 4.5 07:30:08 10° W 07:31:05 10° WNW 07:32:03 10° WNW visible
07 May 3.7 05:31:23 43° E 05:31:23 43° E 05:36:06 10° NE visible
07 May 4.4 07:13:09 11° W 07:14:26 12° WNW 07:16:30 10° NW visible
08 May 4.3 05:16:03 30° ENE 05:16:03 30° ENE 05:19:20 10° NE visible
08 May 4.4 06:57:48 14° WNW 06:57:48 14° WNW 07:00:30 10° NW visible
09 May 4.9 05:00:36 20° NE 05:00:36 20° NE 05:02:33 10° NE visible
09 May 4.4 06:42:22 15° WNW 06:42:22 15° WNW 06:44:20 10° NW visible
10 May 5.4 04:45:04 13° NE 04:45:04 13° NE 04:45:44 10° NE visible
10 May 4.6 06:26:48 14° NW 06:26:48 14° NW 06:28:05 10° NNW visible
11 May 4.8 06:11:10 12° NW 06:11:10 12° NW 06:11:46 10° NNW visible
